Total_Precipitation_Accumulation
0.04 0.05 0.06 0.08 0.10 0.07 0.08 0.12 0.17 0.20 0.17 0.22 0.37 0.63 0.88 1.01 1.33 1.30 1.32 1.50 1.63 1.74 2.06 2.49 2.79 3.33 3.93 4.35 4.76 4.92 4.97 4.88 4.71 4.37 4.06 3.83 3.58 3.36 3.11 2.93 2.83 2.75 2.69 2.90
0.04 0.07 0.06 0.06 0.07 0.08 0.10 0.13 0.16 0.21 0.21 0.29 0.48 0.70 0.99 1.02 1.11 1.18 1.11 1.19 1.38 1.73 2.00 2.53 2.84 3.05 3.48 3.98 4.44 4.75 4.95 4.83 4.45 4.10 3.94 3.85 3.80 3.39 3.11 3.10 3.23 3.06 3.06 3.12
0.05 0.07 0.06 0.06 0.06 0.09 0.13 0.14 0.16 0.17 0.22 0.41 0.54 0.99 1.22 1.09 1.05 1.08 1.09 1.20 1.38 1.81 2.28 2.58 2.79 2.92 3.16 3.55 3.85 3.95 4.14 4.11 3.95 4.00 4.02 3.99 4.00 3.59 3.53 3.54 3.54 3.33 3.33 3.34
0.04 0.05 0.05 0.07 0.09 0.11 0.15 0.13 0.11 0.13 0.24 0.51 0.59 1.22 1.58 1.32 1.20 1.32 1.38 1.36 1.63 1.91 1.96 2.18 2.47 2.74 2.91 3.14 3.46 3.67 3.73 3.68 3.61 3.73 3.80 3.71 3.53 3.42 3.59 3.86 3.79 3.51 3.30 3.17
0.05 0.05 0.07 0.08 0.08 0.09 0.12 0.12 0.13 0.17 0.27 0.47 0.60 0.97 1.49 1.45 1.54 1.55 1.48 1.55 1.82 1.80 1.70 1.83 2.03 2.35 2.49 2.81 3.09 3.28 3.54 3.63 3.57 3.65 3.64 3.68 3.51 3.51 3.57 3.59 3.64 3.44 3.26 2.94
0.05 0.07 0.07 0.07 0.08 0.09 0.10 0.13 0.23 0.32 0.47 0.82 0.64 0.76 1.29 1.44 1.35 1.34 1.39 1.37 1.54 1.51 1.49 1.71 1.89 2.18 2.36 2.49 2.62 2.72 2.93 3.19 3.37 3.42 3.39 3.44 3.39 3.38 3.34 3.32 3.21 3.02 2.87 2.66
0.11 0.12 0.10 0.09 0.09 0.11 0.11 0.21 0.64 1.02 1.21 1.21 0.64 0.73 1.23 1.18 1.11 1.10 1.22 1.27 1.29 1.23 1.22 1.46 1.62 1.80 2.01 2.13 2.24 2.37 2.63 2.98 3.08 3.04 3.00 3.11 3.18 3.20 3.14 3.12 2.97 2.76 2.54 2.31
0.18 0.24 0.15 0.10 0.11 0.12 0.14 0.19 0.55 0.90 1.00 1.00 0.82 1.19 1.61 1.17 1.03 1.05 1.11 1.12 1.08 1.02 0.98 1.12 1.40 1.72 1.89 1.89 1.95 2.10 2.39 2.65 2.69 2.62 2.76 3.02 3.09 3.14 3.06 3.09 2.77 2.52 2.31 2.26
0.13 0.13 0.10 0.10 0.14 0.14 0.15 0.16 0.24 0.43 0.52 0.79 1.05 1.31 1.33 0.86 0.80 0.87 0.95 0.98 1.08 1.06 0.99 1.06 1.17 1.39 1.53 1.59 1.65 1.80 2.22 2.49 2.58 2.65 2.77 2.90 3.00 2.98 2.95 2.86 2.56 2.31 2.32 2.28
0.08 0.09 0.10 0.10 0.12 0.15 0.15 0.18 0.23 0.34 0.56 0.87 1.08 1.33 1.45 1.04 0.84 0.64 0.63 0.71 0.76 0.81 0.84 0.91 0.96 1.08 1.19 1.37 1.63 1.80 1.94 2.25 2.36 2.44 2.60 2.63 2.88 2.81 2.65 2.59 2.35 2.11 2.03 2.10
0.08 0.08 0.11 0.12 0.15 0.17 0.18 0.17 0.19 0.25 0.36 0.63 1.12 1.32 1.01 0.84 0.69 0.66 0.67 0.76 0.76 0.76 0.75 0.80 0.94 1.07 1.17 1.31 1.51 1.62 1.66 1.85 2.00 2.13 2.34 2.36 2.39 2.47 2.52 2.33 2.06 1.96 1.98 2.05
0.07 0.07 0.11 0.17 0.23 0.20 0.17 0.15 0.18 0.25 0.25 0.37 0.68 0.94 0.70 0.73 0.72 0.65 0.73 0.83 0.91 0.88 0.81 0.86 1.03 1.16 1.23 1.37 1.41 1.44 1.52 1.72 1.91 2.08 2.29 2.36 2.34 2.37 2.38 2.22 2.02 1.98 2.03 2.09
0.09 0.09 0.16 0.35 0.47 0.31 0.19 0.15 0.17 0.19 0.17 0.28 0.58 0.86 0.61 0.54 0.66 0.84 1.19 1.38 1.13 0.94 0.86 0.94 1.06 1.11 1.12 1.22 1.35 1.38 1.39 1.59 1.81 2.01 2.31 2.47 2.49 2.43 2.33 2.12 1.90 1.83 1.83 1.92
0.14 0.09 0.15 0.38 0.52 0.43 0.30 0.20 0.17 0.14 0.17 0.23 0.34 0.67 0.61 0.60 0.68 0.90 1.12 1.05 1.00 0.90 0.84 0.95 0.99 1.13 1.12 1.15 1.29 1.30 1.37 1.46 1.70 1.92 2.11 2.23 2.10 2.04 2.02 1.91 1.76 1.70 1.71 1.75
0.18 0.12 0.10 0.16 0.28 0.31 0.28 0.25 0.21 0.17 0.14 0.25 0.33 0.47 0.56 0.61 0.75 0.97 1.15 1.11 1.03 0.84 0.74 0.82 0.84 0.91 0.97 1.11 1.24 1.16 1.20 1.25 1.37 1.54 1.64 1.77 1.75 1.73 1.72 1.78 1.82 1.82 1.86 1.82
0.23 0.23 0.18 0.20 0.24 0.28 0.31 0.28 0.21 0.16 0.14 0.19 0.30 0.47 0.58 0.65 0.78 0.93 0.96 0.84 0.74 0.66 0.55 0.53 0.71 0.82 0.79 0.83 0.94 0.90 0.94 1.07 1.22 1.30 1.40 1.63 1.75 1.76 1.75 1.82 1.95 1.96 1.92 1.92
0.29 0.32 0.32 0.31 0.30 0.29 0.38 0.36 0.27 0.18 0.17 0.24 0.37 0.55 0.72 0.63 0.64 0.74 0.78 0.76 0.70 0.68 0.54 0.50 0.58 0.74 0.75 0.76 0.78 0.89 1.01 1.14 1.25 1.39 1.54 1.71 1.82 1.90 1.91 1.88 2.00 1.96 1.97 2.04
0.45 0.47 0.41 0.38 0.50 0.57 0.42 0.34 0.32 0.31 0.29 0.31 0.44 0.47 0.63 0.65 0.68 0.80 0.81 0.81 0.67 0.62 0.54 0.54 0.55 0.57 0.62 0.69 0.76 0.93 1.22 1.47 1.52 1.67 1.85 1.94 2.06 2.01 1.98 1.98 2.02 2.10 2.20 2.24
0.40 0.59 0.57 0.55 0.68 0.59 0.50 0.35 0.39 0.44 0.59 0.60 0.70 0.70 0.65 0.65 0.75 0.83 0.71 0.65 0.67 0.60 0.56 0.59 0.66 0.68 0.74 0.79 0.84 1.02 1.26 1.57 1.76 1.81 1.91 2.05 2.15 2.19 2.20 2.21 2.18 2.27 2.40 2.36
0.44 0.60 0.74 0.68 0.83 0.81 0.67 0.51 0.51 0.63 1.10 0.93 0.88 0.91 0.80 0.76 0.92 1.01 0.91 0.83 0.78 0.72 0.68 0.70 0.73 0.85 1.04 1.11 1.13 1.24 1.37 1.52 1.71 1.78 1.89 2.07 2.30 2.35 2.37 2.52 2.61 2.57 2.52 2.38
0.77 0.83 0.86 0.85 0.91 0.99 0.82 0.73 0.76 1.21 1.52 1.15 0.99 0.99 0.98 1.10 1.15 1.10 0.95 0.95 0.90 0.79 0.80 0.78 0.81 0.97 1.22 1.35 1.39 1.49 1.63 1.72 1.73 1.82 1.96 2.14 2.32 2.41 2.49 2.66 2.74 2.72 2.66 2.63
0.98 1.03 1.02 1.03 1.23 1.41 0.95 0.89 1.33 1.62 1.35 1.34 1.34 1.30 1.21 1.19 1.14 1.09 0.98 0.96 0.91 0.86 0.91 0.95 0.99 1.15 1.39 1.56 1.53 1.61 1.70 1.72 1.76 1.77 1.91 2.04 2.19 2.21 2.31 2.59 2.68 2.78 2.80 2.75
1.07 1.18 1.26 1.39 1.51 1.37 1.13 1.20 1.38 1.51 1.66 1.57 1.47 1.49 1.32 1.31 1.21 1.11 1.04 0.99 0.95 0.91 0.96 1.03 1.09 1.27 1.54 1.73 1.76 1.84 1.74 1.80 1.84 1.86 1.99 2.13 2.21 2.26 2.36 2.48 2.53 2.63 2.70 2.64
1.32 1.17 1.37 1.63 1.66 1.54 1.38 1.22 1.14 1.27 1.39 1.38 1.39 1.39 1.34 1.31 1.22 1.13 1.04 0.96 0.95 0.96 0.91 0.97 1.10 1.20 1.32 1.53 1.74 1.86 1.88 1.93 1.93 1.96 2.02 2.11 2.22 2.22 2.30 2.43 2.53 2.64 2.74 2.81
1.54 1.36 1.58 1.88 1.76 1.63 1.59 1.46 1.35 1.43 1.50 1.41 1.34 1.33 1.34 1.29 1.23 1.09 1.06 1.03 0.99 0.97 0.93 0.98 1.08 1.13 1.19 1.28 1.42 1.50 1.63 1.76 1.82 1.90 1.97 2.00 2.04 2.14 2.26 2.32 2.43 2.41 2.49 2.52
1.60 1.60 1.86 2.19 1.91 1.75 1.70 1.53 1.39 1.46 1.44 1.51 1.62 1.60 1.37 1.27 1.35 1.28 1.14 1.05 1.03 1.03 1.02 1.04 1.08 1.08 1.10 1.17 1.32 1.44 1.54 1.69 1.85 1.95 1.98 1.93 1.88 1.96 2.04 2.13 2.15 2.17 2.06 2.05